Weather History for Little Rock AFB, AR

Change the Weather History Date:

Wednesday, April 23, 2014

  Actual Average Record
Temperature  
Mean Temperature 62 °F -  
Max Temperature 78 °F 75 °F 89 °F (1999)
Min Temperature 47 °F 52 °F 35 °F (1982)
Degree Days  
Heating Degree Days 2    
Growing Degree Days 12 (Base 50)    
Moisture  
Dew Point 46 °F    
Average Humidity 59    
Maximum Humidity 94    
Minimum Humidity 33    
Precipitation  
Precipitation 0.00 in - - ()
Sea Level Pressure  
Sea Level Pressure 29.98 in    
Wind  
Wind Speed 4 mph (East)    
Max Wind Speed 10 mph    
Max Gust Speed -    
Visibility 10 miles    
Events      
Averages and records for this station are not official NWS values.
T = Trace of Precipitation, MM = Missing Value Source: NWS Daily Summary

Daily Weather History Graph

Daily Weather History Graph

Search for Another Location

Airport:

Trip Planner

Search our weather history database for the weather conditions in past years. The results will help you decide how hot, cold, wet, or windy it might be!

Date:

Astronomy

Apr. 23, 2014 Rise Set
Actual Time 6:26 AM CDT 7:47 PM CDT
Civil Twilight 6:00 AM CDT 8:14 PM CDT
Nautical Twilight 5:28 AM CDT 8:45 PM CDT
Astronomical Twilight 4:55 AM CDT 9:18 PM CDT
Moon 2:44 AM CDT (4/23) 2:09 PM CDT (4/23)
Length of Visible Light 14h 13m
Length of Day
13h 20m
Waning Crescent, 34% of the Moon is Illuminated
Apr 23
Waning Crescent
Apr 29
New
May 6
First Quarter
May 14
Full
May 21
Last Quarter

Hourly Weather History & Observations

Time (CDT) Temp. Dew Point Humidity Pressure Visibility Wind Dir Wind Speed Gust Speed Precip Events Conditions
12:58 AM 51.1 °F 46.6 °F 85% 29.98 in 10.0 mi Calm Calm - N/A   Clear
1:58 AM 49.8 °F 46.4 °F 88% 29.98 in 10.0 mi Calm Calm - N/A   Clear
2:58 AM 48.7 °F 45.7 °F 89% 29.99 in 10.0 mi NE 3.5 mph - N/A   Clear
3:58 AM 47.1 °F 45.5 °F 94% 30.00 in 10.0 mi Calm Calm - N/A   Clear
4:58 AM 47.5 °F 45.3 °F 92% 30.01 in 10.0 mi ENE 1.2 mph - N/A   Clear
5:58 AM 50.4 °F 45.1 °F 82% 30.02 in 10.0 mi ENE 5.8 mph - N/A   Clear
6:58 AM 50.0 °F 45.0 °F 83% 30.04 in 10.0 mi ENE 4.6 mph - N/A   Clear
7:58 AM 56.3 °F 47.7 °F 73% 30.06 in 10.0 mi ENE 4.6 mph - N/A   Clear
8:58 AM 63.5 °F 45.7 °F 52% 30.07 in 10.0 mi East 8.1 mph - N/A   Clear
9:58 AM 66.7 °F 44.6 °F 45% 30.07 in 10.0 mi ESE 10.4 mph - N/A   Clear
10:58 AM 68.5 °F 44.2 °F 42% 30.06 in 10.0 mi ESE 8.1 mph - N/A   Clear
11:58 AM 70.7 °F 44.2 °F 39% 30.05 in 10.0 mi ESE 6.9 mph - N/A   Clear
12:58 PM 72.5 °F 46.0 °F 39% 30.01 in 10.0 mi SE 8.1 mph - N/A   Clear
1:58 PM 74.8 °F 46.4 °F 36% 30.00 in 10.0 mi ESE 8.1 mph - N/A   Clear
2:58 PM 76.5 °F 46.0 °F 34% 29.98 in 10.0 mi ESE 4.6 mph - N/A   Clear
3:58 PM 77.7 °F 47.5 °F 34% 29.94 in 10.0 mi Variable 6.9 mph - N/A   Clear
4:58 PM 78.1 °F 47.1 °F 33% 29.92 in 10.0 mi SE 8.1 mph - N/A   Clear
5:58 PM 77.5 °F 47.7 °F 35% 29.92 in 10.0 mi East 5.8 mph - N/A   Clear
6:58 PM 75.0 °F 46.6 °F 36% 29.92 in 10.0 mi East 8.1 mph - N/A   Clear
7:58 PM 68.7 °F 47.8 °F 47% 29.91 in 10.0 mi East 3.5 mph - N/A   Clear
8:58 PM 62.1 °F 49.6 °F 64% 29.91 in 10.0 mi East 4.6 mph - N/A   Clear
9:58 PM 63.0 °F 47.1 °F 56% 29.91 in 10.0 mi East 3.5 mph - N/A   Clear
10:58 PM 59.5 °F 48.6 °F 67% 29.93 in 10.0 mi Calm Calm - N/A   Clear
11:58 PM 55.6 °F 47.8 °F 75% 29.92 in 10.0 mi ENE 2.3 mph - N/A   Clear